Lid_Strength_Index
-0 -0 -0 -0 0 -0 -1 -1 -1 -1 -1 -1 -1 -1 -1 -1 -0 1 0 1 -1 0 1 1 2 2 2 2 2 3 3 3 3 3 3 3 3 3 3 3 3 3 2
-0 0 0 0 0 -0 -1 -1 -1 -1 -1 -1 -1 -1 -1 -1 -0 2 1 1 1 0 1 2 2 2 2 2 3 4 4 3 3 3 3 3 3 4 4 4 4 4 3
-0 0 0 0 0 -0 -1 -1 -1 -1 -1 -1 -1 -1 -1 -1 1 2 2 2 2 2 1 2 2 2 2 3 3 3 4 4 3 4 4 4 4 5 4 4 4 4 4
-1 0 0 -0 -0 -1 -1 -1 -1 -0 -0 -0 -0 -1 -1 1 1 3 3 2 1 1 2 2 2 2 2 2 2 3 3 4 4 4 4 5 5 5 5 5 4 4 4
-1 -1 -1 -0 -1 -1 -1 -1 -0 -0 0 0 0 -0 -0 1 1 2 2 2 2 2 2 3 3 3 3 3 2 3 3 3 4 4 4 4 5 5 5 5 4 4 4
-1 -1 -1 -1 -1 -1 -0 -0 -0 -0 -0 0 1 2 1 1 1 1 2 2 3 3 3 4 4 5 5 3 3 2 2 3 4 4 4 4 4 5 5 5 4 4 4
-1 -1 -1 -1 -1 -0 -0 -0 -0 0 1 -0 3 3 3 3 2 2 2 3 3 4 4 4 4 5 5 4 3 3 2 2 3 4 3 4 4 4 5 4 4 4 4
-1 -1 -1 -1 -1 -0 -0 -0 0 1 1 0 3 3 4 4 4 3 2 3 3 3 5 5 5 6 6 5 5 3 3 2 3 3 3 4 4 4 4 4 4 4 4
-0 -0 -0 -1 -1 -1 0 0 0 1 2 1 1 3 6 6 3 3 4 4 3 3 4 5 6 7 7 7 7 6 4 3 3 3 3 3 4 4 4 4 4 4 4
0 -0 -0 -1 -1 -1 -0 -0 -0 0 1 2 1 2 2 2 5 5 3 4 4 4 4 5 6 7 8 9 10 8 7 5 5 4 3 3 4 4 4 4 4 4 4
0 0 0 -0 -0 -0 -0 -0 -0 0 0 1 2 2 1 2 3 4 5 3 4 4 5 5 6 8 10 11 11 10 8 6 5 5 4 4 4 4 4 4 4 4 4
0 0 0 0 0 0 0 -0 -0 -0 0 0 1 1 2 3 3 3 5 4 4 3 7 8 8 10 12 11 10 10 8 7 6 6 5 5 5 5 5 5 4 4 4
1 1 1 1 1 0 0 0 0 0 0 1 1 1 1 1 1 2 4 4 5 8 11 11 10 10 10 9 9 10 9 7 7 6 5 5 6 5 5 5 4 4 4
1 0 1 1 1 1 1 1 1 0 -0 0 1 1 1 1 1 1 2 3 5 10 11 9 8 9 8 10 9 10 9 8 7 6 5 5 6 5 5 5 5 5 5
0 0 0 1 1 1 1 1 0 0 1 1 1 1 2 1 1 2 2 3 4 6 7 6 7 8 10 8 9 9 9 9 8 7 6 6 6 5 5 5 5 5 4
0 1 1 1 1 1 1 1 1 2 2 2 2 3 3 3 3 3 4 4 6 5 7 7 7 9 9 10 9 9 9 9 9 8 7 6 6 5 5 5 5 5 5
0 1 1 1 1 1 1 1 2 2 3 3 3 3 3 3 3 6 8 8 9 8 9 9 10 8 9 9 9 9 8 8 9 9 8 7 6 6 6 5 5 5 6
0 1 1 1 1 1 1 2 2 2 2 3 3 4 4 7 7 7 8 8 9 8 9 9 8 9 10 9 9 8 9 9 9 9 8 7 7 7 6 6 6 6 6
1 1 1 2 2 2 2 2 2 2 3 3 4 6 6 6 7 8 8 9 9 9 9 9 9 10 9 9 9 9 10 10 9 9 8 8 7 7 7 7 7 7 7
1 2 2 2 2 2 2 2 4 5 6 6 7 7 7 7 7 8 8 9 8 8 10 10 10 10 10 10 11 11 11 10 9 9 9 9 8 8 8 7 7 7 7
4 4 5 6 6 6 7 7 7 7 8 8 8 8 8 10 10 8 8 9 9 10 10 10 11 11 11 12 11 10 11 9 9 9 9 8 9 9 8 8 8 8 7
9 9 10 10 10 10 10 10 9 8 8 8 8 9 9 10 9 9 9 9 9 9 11 11 11 11 11 11 10 10 11 12 11 8 10 10 9 9 9 8 8 8 7
10 10 10 10 11 11 11 10 11 8 8 8 8 9 10 10 10 9 9 9 10 9 9 9 10 10 10 10 10 11 12 11 11 10 12 11 9 11 9 9 8 8 8
10 11 11 12 12 12 11 11 11 9 9 9 9 9 9 10 10 11 9 10 10 10 9 10 10 9 9 10 11 11 11 12 11 11 12 13 10 11 9 9 9 8 8
13 13 13 13 13 13 11 11 11 11 11 11 11 10 10 10 11 10 11 12 12 11 10 10 9 9 9 9 10 11 12 13 13 12 12 13 11 12 10 10 9 10 9
14 14 14 14 14 13 11 11 11 11 12 12 12 12 12 11 11 10 12 12 13 12 12 13 12 11 10 10 10 11 12 13 14 14 12 14 12 12 12 11 11 11 10